Location: Wonder Lake State Park
(41.4960°N, 73.6562°W)
Time: 06:49:12
(UTC-05:00)

Daily predictions for brighter satellites

Satellite Brightness Start Highest point End
(mag) Time Altitude Azimuth Time Altitude Azimuth Time Altitude Azimuth
COSMO-SKYMED 1 2.8 18:08:54 10° N 18:13:16 79° WNW 18:17:36 10° SSW
Cosmos 1340 2.6 18:11:03 10° N 18:14:52 82° ENE 18:18:38 10° S
Cosmos 1602 3.7 18:11:58 10° S 18:15:48 63° E 18:19:41 10° NNE
Cosmos 1741 Rocket 4.2 18:12:34 10° S 18:17:34 47° ESE 18:22:33 10° NNE
Cosmos 1833 4.4 18:12:41 10° SSW 18:18:23 79° WNW 18:24:04 10° NNE
SL-16 R/B 4.3 18:16:41 10° NW 18:21:38 32° WSW 18:26:34 10° SSW
Resurs 01 Rocket 2.6 18:19:24 10° SE 18:23:05 27° ENE 18:26:46 10° N
Meteor 1-11 Rocket 3.8 18:17:40 10° S 18:23:25 67° E 18:29:19 10° NNE
NOAA 12 4.1 18:18:13 10° SSE 18:23:32 74° ENE 18:28:51 10° N
Cosmos 2333 Rocket 3.3 18:21:20 10° N 18:26:06 26° NE 18:30:50 10° ESE
Cosmos 1140 Rocket 3.6 18:21:25 10° SSW 18:26:33 85° WNW 18:31:45 10° NNE
Cosmos 614 Rocket 3.9 18:22:28 10° SSW 18:27:31 75° ESE 18:32:36 10° NNE
FENGYUN 3A 4.0 18:25:34 10° SE 18:30:41 45° ENE 18:35:51 10° N
Resurs 1-3 4.5 18:29:52 10° SE 18:33:37 28° ENE 18:37:23 10° N
ATLAS CENTAUR R/B 3.1 18:31:52 10° S 18:34:56 17° SE 18:36:04 14° ESE
Meteor 1-28 Rocket 4.3 18:31:49 10° N 18:35:31 49° WNW 18:39:12 10° SSW
Cosmos 1570 Rocket 3.9 18:31:03 10° NNW 18:36:17 72° ENE 18:41:30 10° SSE
Cosmos 2181 Rocket 4.1 18:30:02 10° N 18:36:21 89° WSW 18:42:43 10° S
GPS 2-04 Rocket1 3.9 18:32:40 10° WSW 18:36:31 34° S 18:39:41 14° ESE
Cosmos 1633 3.4 18:35:16 10° SSW 18:38:53 56° W 18:42:31 10° N
USA 229 DEB 3.9 18:32:41 10° NNW 18:39:44 59° NE 18:46:53 10° SE
USA 229 3.9 18:32:47 10° NNW 18:39:50 59° NE 18:46:58 10° SE
Genesis I 3.4 18:36:22 10° NW 18:40:19 73° WSW 18:44:12 10° SSE
Cosmos 1238 Rocket 2.8 18:37:35 10° NNW 18:40:30 58° W 18:43:31 10° S
Okean 1 Rocket 3.1 18:37:16 10° S 18:41:46 87° E 18:46:16 10° N
Cosmos 1709 Rocket 4.5 18:37:49 10° SSW 18:43:58 65° W 18:50:06 10° N
Cosmos 2074 Rocket 4.1 18:39:19 10° SSE 18:45:24 57° E 18:51:33 10° NNE
METEOR-M 4.4 18:40:09 10° S 18:45:28 73° WSW 18:50:50 10° NNW
Cosmos 1892 Rocket 4.4 18:41:50 10° NNE 18:45:35 27° ENE 18:48:49 13° SE
Cosmos 1025 Rocket 3.1 18:43:58 10° N 18:48:18 56° E 18:52:37 10° SSE
SL-08 ROCKET BODY 4.4 18:43:34 10° S 18:49:41 69° E 18:55:50 10° NNE
Spot 2 Rocket 3.6 18:45:38 10° SE 18:50:31 52° ENE 18:55:26 10° N
OTV 4 2.2 18:48:34 10° SSW 18:50:44 18° SSE 18:51:22 17° SE
Cosmos 2184 Rocket 4.0 18:45:36 10° S 18:51:47 61° E 18:57:56 10° NNE
Meteor 1-5 Rocket 4.3 18:46:18 10° S 18:52:09 60° E 18:57:57 10° NNE
FengYun 1-2 T 4.1 18:50:10 10° SSE 18:55:37 74° ENE 19:01:08 10° N
Hubble Space Telescope 3.1 19:00:32 10° SSW 19:02:11 12° S 19:03:33 11° SSE
Spot 1 4.5 19:00:46 25° ESE 19:02:28 36° ENE 19:06:19 10° N
BREEZE-M DEB (TANK) 2.0 19:00:52 10° SW 19:04:45 73° SSE 19:05:21 47° ENE
Cosmos 1814 Rocket 4.5 19:00:53 10° N 19:05:39 37° ENE 19:07:35 27° ESE
Envisat 4.0 19:06:50 25° ENE 19:07:11 25° ENE 19:11:17 10° NNE
Cosmos 2208 Rocket 4.4 19:01:53 10° NNW 19:07:17 67° WSW 19:12:37 10° S
SJ-6B 4.0 19:05:10 10° S 19:09:00 45° W 19:12:46 10° NNW
Cosmos 1544 Rocket 3.8 19:05:12 10° SSE 19:09:16 41° E 19:13:21 10° NNE
Nadezhda 3 Rocket 4.3 19:03:38 10° N 19:09:29 43° ENE 19:14:50 12° SE
NOSS 3-1 (C) 4.3 19:03:01 10° NNW 19:10:12 47° NE 19:14:48 25° ESE
NOSS 0 Rocket 4.0 19:04:58 10° NNW 19:11:02 57° ENE 19:15:08 21° SE
Cosmos 405 Rocket 2.9 19:07:10 10° N 19:11:10 53° ENE 19:13:11 26° SE
Cosmos 2237 Rocket 2.6 19:07:01 10° N 19:12:25 41° ENE 19:14:36 30° ESE
ALOS 2.5 19:07:56 10° S 19:12:35 70° W 19:17:16 10° NNW
HJ-1C 4.0 19:10:31 10° S 19:13:49 56° W 19:17:10 10° NNW
Cosmos 2297 Rocket 2.9 19:09:42 10° SSE 19:14:24 30° ESE 19:14:24 30° ESE
Cosmos 2333 4.4 19:08:58 10° NNW 19:14:43 76° WSW 19:20:28 10° SSE
H-2A R/B 2.5 19:11:57 10° SSE 19:15:40 87° ENE 19:19:27 10° N
CZ-2D R/B 3.1 19:14:14 24° SSE 19:16:22 64° ENE 19:20:10 10° N
COSMOS 2428 3.1 19:10:54 10° NNW 19:16:32 63° WSW 19:22:08 10° S
Cosmos 2341 Rocket 4.4 19:14:14 10° SSE 19:20:05 40° E 19:25:58 10° NNE
Cosmos 2154 Rocket 4.1 19:15:06 10° SSE 19:21:15 55° E 19:27:25 10° NNE
Cosmos 2285 Rocket 4.1 19:16:54 10° NNW 19:23:22 83° WSW 19:29:46 10° SSE
Gbstr 26 Del rocket 4.2 19:20:42 10° W 19:24:04 30° NNW 19:25:41 21° NNE
Cosmos 2219 Rocket 2.1 19:19:08 10° NNW 19:24:47 85° ENE 19:28:57 19° SSE
Okean 2 3.6 19:24:31 10° NNW 19:28:41 74° W 19:32:50 10° S
Cosmos 2219 4.2 19:27:31 10° SW 19:33:02 47° WNW 19:38:35 10° NNE
Helios 1A 2.8 19:33:28 48° SSE 19:34:35 82° ENE 19:38:45 10° N
Cosmos 2227 Rocket 2.1 19:29:17 10° S 19:34:48 59° ESE 19:38:28 22° NE
Helios 1B rocket 2.3 19:30:56 10° NNE 19:35:06 73° ESE 19:39:14 10° S
Cosmos 1486 Rocket 4.1 19:30:03 10° S 19:35:12 52° ESE 19:36:14 45° ENE
Atlas Centaur 2 4.1 19:30:46 10° SSW 19:35:14 18° SSE 19:35:47 17° SSE
Abrixas rocket 3.3 19:34:01 10° W 19:37:11 40° NNW 19:37:11 40° NNW
SAR-Lupe-1 4.4 19:44:47 63° WNW 19:44:47 63° WNW 19:48:03 10° NNW
SAR-Lupe-4 4.1 19:44:54 51° SW 19:45:20 55° W 19:48:52 10° NNW
Cosmos 1455 Rocket 2.9 19:42:19 10° S 19:46:43 90° ENE 19:51:05 10° N
Cosmos 841 Rocket 3.9 19:42:08 10° N 19:46:23 45° NE 19:46:23 45° NE
SL-16 R/B 3.0 19:43:00 10° N 19:47:22 34° NE 19:47:22 34° NE
Cosmos 962 Rocket 4.3 19:45:24 10° S 19:51:32 71° E 19:57:39 10° NNE
Meteor 2-8 Rocket 4.3 19:48:15 10° N 19:54:16 63° E 19:54:41 61° E
Cosmos 1763 Rocket 3.4 19:52:40 10° NNW 19:57:29 72° NNE 19:57:29 72° NNE
Resurs 01 Rocket 3.6 19:55:40 10° SSW 19:59:27 28° W 20:03:17 10° NW
Cosmos 2333 Rocket 2.9 20:05:05 10° NW 20:10:38 51° WSW 20:12:59 32° SSW
GEOS 3 Rocket 4.2 20:08:20 27° NNE 20:11:00 54° NW 20:16:07 10° SW
Cosmos 1980 4.0 20:06:08 10° NNW 20:11:43 62° WSW 20:12:50 51° SSW
Cosmos 2082 4.4 20:31:38 10° SW 20:37:11 51° WNW 20:37:59 47° NW
NOSS 3-1 (A) 4.0 20:35:56 10° NW 20:43:36 75° WSW 20:44:07 73° SSW
Envisat 4.4 20:47:02 35° WNW 20:47:02 35° WNW 20:50:45 10° NNW
ATLAS 2AS CENTAUR R/B 3.7 20:41:48 10° NNW 20:48:06 41° NNE 20:48:06 41° NNE
Cosmos 2237 Rocket 3.8 20:51:28 10° NW 20:56:17 29° WSW 20:56:29 29° WSW
Cosmos 2297 Rocket 3.7 20:53:06 10° SW 20:56:25 30° W 20:56:25 30° W
Cosmos 2227 Rocket 4.3 21:14:54 10° WSW 21:19:16 23° NW 21:20:36 21° NNW
SL-16 R/B 4.4 21:27:12 10° NW 21:29:17 21° NW 21:29:17 21° NW
